Atlanta, GA

3:58 AM EST on January 22, 2017 (GMT -0500)
The Hartsfield Atlanta International

Weather History for KATL - December, 2013

Change the Weather History Date:

Thursday, December 19, 2013

  Actual Average Record
Temperature  
Mean Temperature 48 °F 44 °F  
Max Temperature 63 °F 53 °F 74 °F (1984)
Min Temperature 33 °F 36 °F 11 °F (1963)
Degree Days  
Heating Degree Days 17 21  
Month to date heating degree days 297 356  
Since 1 July heating degree days 824 824  
Cooling Degree Days 0 0  
Month to date cooling degree days 7 0  
Year to date cooling degree days 1762 1882  
Moisture  
Dew Point 24 °F    
Average Humidity 45    
Maximum Humidity 70    
Minimum Humidity 20    
Precipitation  
Precipitation 0.00 in 0.12 in 1.52 in (1967)
Month to date precipitation 2.99 2.46  
Year to date precipitation 61.21 48.27  
Snow  
Snow 0.00 in 0.00 in T in (2007)
Month to date snowfall 0.0 0.1  
Since 1 July snowfall 0.4 0.1  
Snow Depth 0.00 in    
Sea Level Pressure  
Sea Level Pressure 30.28 in    
Wind  
Wind Speed 4 mph (SE)    
Max Wind Speed 10 mph    
Max Gust Speed 12 mph    
Visibility 10 miles    
Events      
T = Trace of Precipitation, MM = Missing Value Source: NWS Daily Summary

Daily Weather History Graph

Daily Weather History Graph

Search for Another Location

Airport or City:

Trip Planner

Search our weather history database for the weather conditions in past years. The results will help you decide how hot, cold, wet, or windy it might be!

Date:

Astronomy

Dec. 19, 2013 Rise Set
Actual Time 7:37 AM EST 5:32 PM EST
Civil Twilight 7:09 AM EST 6:00 PM EST
Nautical Twilight 6:38 AM EST 6:31 PM EST
Astronomical Twilight 6:08 AM EST 7:01 PM EST
Moon 7:51 PM EST (12/19) 9:00 AM EST (12/19)
Length of Visible Light 10h 50m
Length of Day
9h 55m
Waning Gibbous, 95% of the Moon is Illuminated
Dec 19
Waning Gibbous
Dec 25
Last Quarter
Jan 1
New
Jan 7
First Quarter
Jan 15
Full

Hourly Weather History & Observations

Time (EST) Temp. Windchill Dew Point Humidity Pressure Visibility Wind Dir Wind Speed Gust Speed Precip Events Conditions
12:52 AM 37.0 °F - 23.0 °F 57% 30.30 in 10.0 mi Calm Calm - N/A   Mostly Cloudy
1:52 AM 37.0 °F - 24.1 °F 59% 30.29 in 10.0 mi Calm Calm - N/A   Mostly Cloudy
2:52 AM 35.1 °F - 25.0 °F 67% 30.30 in 10.0 mi Calm Calm - N/A   Scattered Clouds
3:52 AM 37.0 °F - 21.0 °F 52% 30.30 in 10.0 mi Calm Calm - N/A   Partly Cloudy
4:52 AM 37.9 °F - 21.9 °F 53% 30.31 in 10.0 mi Calm Calm - N/A   Partly Cloudy
5:52 AM 36.0 °F - 26.1 °F 67% 30.31 in 10.0 mi Calm Calm - N/A   Scattered Clouds
6:52 AM 34.0 °F 31.0 °F 25.0 °F 70% 30.32 in 10.0 mi East 3.5 mph - N/A   Mostly Cloudy
7:52 AM 33.1 °F - 24.1 °F 70% 30.32 in 10.0 mi Calm Calm - N/A   Mostly Cloudy
8:46 AM 39.2 °F 37.0 °F 26.6 °F 61% 30.31 in 10.0 mi East 3.5 mph - N/A   Mostly Cloudy
8:52 AM 41.0 °F 39.0 °F 24.1 °F 51% 30.33 in 10.0 mi ESE 3.5 mph - N/A   Mostly Cloudy
9:52 AM 48.0 °F - 24.1 °F 39% 30.34 in 10.0 mi SE 4.6 mph - N/A   Mostly Cloudy
10:52 AM 52.0 °F - 21.9 °F 31% 30.34 in 10.0 mi SE 5.8 mph - N/A   Mostly Cloudy
11:52 AM 57.0 °F - 21.0 °F 25% 30.33 in 10.0 mi South 8.1 mph - N/A   Mostly Cloudy
12:52 PM 59.0 °F - 21.9 °F 24% 30.29 in 10.0 mi South 5.8 mph - N/A   Mostly Cloudy
1:52 PM 61.0 °F - 21.0 °F 21% 30.25 in 10.0 mi SSW 5.8 mph - N/A   Mostly Cloudy
2:52 PM 62.1 °F - 21.0 °F 21% 30.22 in 10.0 mi South 4.6 mph - N/A   Mostly Cloudy
3:52 PM 63.0 °F - 21.9 °F 21% 30.22 in 10.0 mi SE 5.8 mph - N/A   Scattered Clouds
4:52 PM 61.0 °F - 23.0 °F 23% 30.22 in 10.0 mi SSE 4.6 mph - N/A   Mostly Cloudy
5:52 PM 57.0 °F - 24.1 °F 28% 30.23 in 10.0 mi SSE 5.8 mph - N/A   Scattered Clouds
6:52 PM 55.0 °F - 24.1 °F 30% 30.24 in 10.0 mi SE 4.6 mph - N/A   Mostly Cloudy
7:52 PM 53.1 °F - 26.1 °F 35% 30.23 in 10.0 mi SSE 6.9 mph - N/A   Overcast
8:52 PM 51.1 °F - 28.0 °F 41% 30.23 in 10.0 mi SSE 5.8 mph - N/A   Overcast
9:52 PM 51.1 °F - 26.1 °F 38% 30.24 in 10.0 mi Calm Calm - N/A   Mostly Cloudy
10:52 PM 48.0 °F - 27.0 °F 44% 30.22 in 10.0 mi SE 3.5 mph - N/A   Overcast
11:52 PM 46.9 °F - 28.0 °F 48% 30.20 in 10.0 mi SE 5.8 mph - N/A   Overcast